Regional Weather Roundup
Issued by NWS Cleveland, OH

Home | Current Version | Previous Version | Graphics & Text | Print | Product List | Glossary On
Versions: 1 2 3 4 5 6 7 8 9 10 11 12 13 14 15 16 17 18 19 20 21 22 23 24 25 26 27 28 29 30 31 32 33 34 35 36 37 38 39 40 41 42 43 44 45 46 47 48 49 50
000
ASUS41 KCLE 020100
RWRCLE
OHIO REGIONAL WEATHER ROUNDUP
NATIONAL WEATHER SERVICE WILMINGTON, OH
900 PM EDT MON SEP 01 2014

NOTE: "FAIR" INDICATES FEW OR NO CLOUDS BELOW 12,000 FEET WITH NO
SIGNIFICANT WEATHER AND/OR OBSTRUCTIONS TO VISIBILITY.

OHZ001>008-015>018-024>027-034-035-043-044-020200-
   NORTHWEST OHIO

CITY           SKY/WX    TMP DP  RH WIND       PRES   REMARKS
DEFIANCE       PTCLDY    77  70  79 S8        29.83R
FINDLAY        MOCLDY    77  70  79 SW9       29.85R
TOLEDO EXPRESS PTCLDY    77  70  79 SW9       29.82R
TOLEDO METCALF PTCLDY    77  70  79 SW8       29.83R
LIMA           PTCLDY    78  70  76 SW7       29.88R
$$

OHZ009>014-019>023-028>033-038-089-020200-
   NORTHEAST OHIO

CITY           SKY/WX    TMP DP  RH WIND       PRES   REMARKS
CLE-HOPKINS    MOCLDY    79  70  74 SW9       29.87R
CLE-LAKEFRONT  MOCLDY    81  70  69 S15G21    29.83R
CUY CO. ARPT   MOCLDY    81  72  74 S14       29.77F
LORAIN-ELYRIA  CLOUDY    81  69  67 SW13      29.87R
ASHTABULA      PTCLDY    77  69  76 S10       29.89R
AKRON-CANTON   MOCLDY    78  69  73 SW12      29.91R
WOOSTER        NOT AVBL
MANSFIELD      MOCLDY    77  69  76 S14       29.90S
YOUNGSTOWN     MOCLDY    76  69  79 S8        29.91R
$$

OHZ042-051>053-060>062-070>072-077>081-020200-
  SOUTHWEST OHIO

CITY           SKY/WX    TMP DP  RH WIND       PRES   REMARKS
CINC-COVINGTON MOCLDY    80  68  66 SW14G20   29.94S
CINC-LUNKEN    MOCLDY    79  72  79 S9        29.93S
HAMILTON       MOCLDY    74  73  97 CALM      29.92F FOG
DAYTON         NOT AVBL
WRIGHT-PAT AFB PTCLDY    78  72  80 S9        29.91S
DAYTON GENERAL MOCLDY    78  70  76 SW8       29.92S
WILMINGTON     CLOUDY    76  71  85 SW7       29.95R THUNDER
$$

OHZ036-037-039>041-045>050-054>059-063>069-073>076-082>088-020200-
  CENTRAL AND SOUTHEAST OHIO

CITY           SKY/WX    TMP DP  RH WIND       PRES   REMARKS
COLUMBUS       CLOUDY    80  70  71 S7        29.92S
OSU AIRPORT    CLOUDY    78  69  73 S9        29.92R
BOLTON FIELD   NOT AVBL
RICKENBACK AFB NOT AVBL
NEWARK         CLOUDY    76  70  82 SW7       29.92S
MARION         MOCLDY    77  71  82 S10       29.89S
LANCASTER      CLOUDY    77  70  79 S5        29.94S
ZANESVILLE     PTCLDY    76  68  76 SW8       29.94R
NEW PHILLY     MOCLDY    74  71  91 S5        29.93R
$$


USA.gov is the U.S. government's official web portal to all federal, state and local government web resources and services.